Location: Oregon Trail
(41.1872°N, 102.0741°W)
Time: 09:05:10
(UTC+00:00)

NOSS 3-4 (C) - Pass Details

Date: 19 November 2019
Orbit: 908 x 1304 km, 63.4° (Epoch: 02 December)

Event Time Altitude Azimuth Distance (km) Brightness Sun altitude
Exits shadow 12:12:27 13° 324° (NW) 2,775 5.4 -16.6°
Maximum altitude 12:19:03 85° 237° (WSW) 1,187 3.9 -15.3°
Drops below altitude 10° 12:26:51 10° 150° (SSE) 3,220 6.8 -13.9°
Sets 12:29:43 0° 150° (SSE) 4,220 7.5 -13.4°
